sat.trackr.live / text

‹ back to catalog

SITRO-AIS-62

NORAD 67296 · 2025-313BA

PAYLOAD ACTIVE UNKNOWN

§ Identity

Operator
Country
CIS
Launch date
2025-12-28
Launch site
VOSTO
Launch vehicle
Mass (kg)
RCS (m²)

External: N2YO · Heavens-Above · Gunter

§ Orbital elements

Epoch: 2026-05-24T18:33:12.053088Z

Period
94.45 min
Inclination
97.3946°
Eccentricity
0.0010250
Mean motion
15.24680888 rev/d
Perigee alt
484.7 km
Apogee alt
498.8 km
Semi-major
6,869.9 km
B*
3.8682e-4
RAAN
220.1807°
Arg perigee
82.9396°
Mean anomaly
277.3007°
Rev number
2,241

§ Raw data

SITRO-AIS-621 67296U 25313BA  26144.77305617  .00009507  00000+0  38682-3 0  99972 67296  97.3946 220.1807 0010250  82.9396 277.3007 15.24680888 22410

JSON: /api/v1/satellites/67296 · /tle

For live sub-satellite position, see the globe view (requires WebGL).

§ Visibility from observer

Set your observer location to see the next 7 days of passes ≥ 10°. The values pass through the URL so the page stays shareable.

No JS? Fill the form by hand. The geolocation button needs JavaScript.